Pittsfield, MA

11:24 PM EST on November 11, 2019 (GMT -0500)
Pittsfield Municipal

Weather History for KPSF - July, 2019

Change the Weather History Date:

Thursday, July 18, 2019

  Actual Average Record
Temperature  
Mean Temperature 70 °F 68 °F  
Max Temperature 74 °F 79 °F 92 °F (1953)
Min Temperature 66 °F 57 °F 43 °F (1956)
Degree Days  
Heating Degree Days 0 1  
Month to date heating degree days 0 18  
Since 1 June heating degree days 67 119  
Since 1 July heating degree days 0 18  
Cooling Degree Days 5 3  
Month to date cooling degree days 119 62  
Year to date cooling degree days 176 131  
Since 1 June cooling degree days 170 118  
Growing Degree Days 20 (Base 50)    
Moisture  
Dew Point 65 °F    
Average Humidity 85    
Maximum Humidity 97    
Minimum Humidity 73    
Precipitation  
Precipitation 0.06 in 0.15 in 1.62 in (1965)
Month to date precipitation 1.36 2.23  
Year to date precipitation 23.95 23.67  
Sea Level Pressure  
Sea Level Pressure 29.93 in    
Wind  
Wind Speed 4 mph (ENE)    
Max Wind Speed 12 mph    
Max Gust Speed 14 mph    
Visibility 6 miles    
Events Fog , Rain    
T = Trace of Precipitation, MM = Missing Value Source: NWS Daily Summary

Daily Weather History Graph

Daily Weather History Graph

Search for Another Location

Airport or City:

Astronomy

Jul. 18, 2019 Rise Set
Actual Time 5:31 AM EDT 8:26 PM EDT
Civil Twilight 4:58 AM EDT 8:59 PM EDT
Nautical Twilight 4:16 AM EDT 9:41 PM EDT
Astronomical Twilight 3:26 AM EDT 10:31 PM EDT
Moon 9:49 PM EDT (7/18) 6:59 AM EDT (7/18)
Length of Visible Light 16h 01m
Length of Day
14h 54m
Full, 97% of the Moon is Illuminated
Jul 18
Full
Jul 24
Last Quarter
Jul 31
New
Aug 7
First Quarter
Aug 15
Full

Hourly Weather History & Observations

Time (EDT) Temp. Dew Point Humidity Pressure Visibility Wind Dir Wind Speed Gust Speed Precip Events Conditions
12:54 AM 70.0 °F 66.9 °F 90% 29.86 in 9.0 mi NE 3.5 mph - N/A   Overcast
1:03 AM 70.0 °F 66.9 °F 90% 29.94 in 3.0 mi NNE 4.6 mph - N/A   Overcast
1:08 AM 70.0 °F 66.9 °F 90% 29.94 in 1.8 mi NNE 3.5 mph - N/A   Overcast
1:20 AM 70.0 °F 68.0 °F 93% 29.94 in 1.2 mi Calm Calm - N/A   Overcast
1:28 AM 70.0 °F 68.0 °F 93% 29.94 in 3.0 mi Calm Calm - N/A   Overcast
1:54 AM 70.0 °F 68.0 °F 93% 29.84 in 8.0 mi Calm Calm - N/A   Overcast
2:54 AM 69.1 °F 66.0 °F 90% 29.86 in 10.0 mi Calm Calm - N/A   Overcast
3:28 AM 69.1 °F 66.9 °F 93% 29.93 in 1.5 mi Calm Calm - N/A   Overcast
3:39 AM 68.0 °F 66.0 °F 93% 29.93 in 0.8 mi Calm Calm - N/A   Overcast
3:54 AM 68.0 °F 66.0 °F 93% 29.86 in 1.8 mi Calm Calm - N/A   Overcast
4:01 AM 68.0 °F 66.0 °F 93% 29.93 in 2.5 mi Calm Calm - N/A   Overcast
4:14 AM 68.0 °F 66.0 °F 93% 29.93 in 5.0 mi Calm Calm - N/A   Overcast
4:54 AM 68.0 °F 66.0 °F 93% 29.87 in 2.0 mi Calm Calm - N/A   Overcast
5:01 AM 68.0 °F 66.0 °F 93% 29.94 in 1.2 mi Calm Calm - N/A   Overcast
5:09 AM 68.0 °F 66.0 °F 93% 29.94 in 3.0 mi Calm Calm - N/A   Overcast
5:42 AM 68.0 °F 66.0 °F 93% 29.95 in 1.8 mi Calm Calm - N/A   Overcast
5:54 AM 68.0 °F 66.0 °F 93% 29.88 in 1.0 mi North 3.5 mph - N/A   Mist
6:10 AM 68.0 °F 66.0 °F 93% 29.95 in 0.2 mi Calm Calm - N/A Fog Fog
6:24 AM 68.0 °F 66.0 °F 93% 29.96 in 0.8 mi Calm Calm - N/A   Overcast
6:32 AM 68.0 °F 66.0 °F 93% 29.96 in 2.0 mi Calm Calm - N/A   Overcast
6:40 AM 68.0 °F 66.0 °F 93% 29.97 in 9.0 mi Calm Calm - N/A   Overcast
6:54 AM 68.0 °F 66.0 °F 93% 29.90 in 8.0 mi Calm Calm - N/A   Overcast
7:54 AM 69.1 °F 66.0 °F 90% 29.91 in 5.0 mi ENE 4.6 mph - 0.01 in   Overcast
8:07 AM 69.1 °F 66.0 °F 90% 29.99 in 3.0 mi NE 4.6 mph - 0.00 in Rain Light Rain
8:18 AM 69.1 °F 66.9 °F 93% 29.99 in 2.0 mi ENE 3.5 mph - 0.01 in Rain Light Rain
8:27 AM 69.1 °F 66.9 °F 93% 29.99 in 1.5 mi NE 5.8 mph - 0.02 in Rain Light Rain
8:34 AM 69.1 °F 66.9 °F 93% 29.99 in 2.0 mi NE 5.8 mph - 0.03 in Rain Light Rain
8:47 AM 69.1 °F 66.9 °F 93% 30.00 in 3.0 mi NNE 4.6 mph - 0.03 in Rain Light Rain
8:54 AM 69.1 °F 66.9 °F 93% 29.93 in 4.0 mi NE 6.9 mph - 0.03 in Rain Light Rain
9:08 AM 69.1 °F 66.9 °F 93% 29.99 in 4.0 mi NE 8.1 mph - 0.00 in Rain Light Rain
9:54 AM 71.1 °F 66.9 °F 87% 29.90 in 10.0 mi ENE 6.9 mph - 0.01 in   Overcast
10:01 AM 71.1 °F 66.9 °F 87% 29.97 in 10.0 mi ENE 9.2 mph - N/A   Overcast
10:10 AM 71.1 °F 66.0 °F 84% 29.97 in 10.0 mi ENE 9.2 mph - N/A   Overcast
11:29 AM 70.0 °F 64.9 °F 84% 29.99 in 7.0 mi East 8.1 mph - N/A   Overcast
11:54 AM 70.0 °F 66.0 °F 87% 29.93 in 8.0 mi Variable 6.9 mph - N/A   Overcast
12:54 PM 70.0 °F 64.9 °F 84% 29.91 in 10.0 mi ENE 9.2 mph - 0.00 in   Overcast
1:54 PM 69.1 °F 64.9 °F 87% 29.91 in 4.0 mi ENE 6.9 mph - 0.01 in Rain Light Rain
2:54 PM 72.0 °F 64.0 °F 76% 29.88 in 10.0 mi ENE 6.9 mph - 0.00 in   Overcast
3:03 PM 73.0 °F 64.9 °F 76% 29.95 in 10.0 mi Variable 5.8 mph - N/A   Overcast
3:54 PM 73.9 °F 64.9 °F 73% 29.88 in 10.0 mi ENE 5.8 mph - N/A   Overcast
4:54 PM 73.0 °F 64.9 °F 76% 29.88 in 10.0 mi East 5.8 mph - N/A   Overcast
5:02 PM 73.0 °F 64.9 °F 76% 29.95 in 10.0 mi East 4.6 mph - N/A   Overcast
5:32 PM 72.0 °F 64.0 °F 76% 29.96 in 10.0 mi ENE 3.5 mph - N/A   Overcast
5:54 PM 72.0 °F 64.0 °F 76% 29.89 in 10.0 mi East 4.6 mph - N/A   Overcast
6:54 PM 71.1 °F 63.0 °F 75% 29.88 in 10.0 mi ENE 5.8 mph - N/A   Overcast
7:43 PM 71.1 °F 63.0 °F 75% 29.95 in 10.0 mi ENE 3.5 mph - N/A   Overcast
7:51 PM 71.6 °F 62.6 °F 73% 29.95 in 10.0 mi East 3.5 mph - N/A   Overcast
7:54 PM 71.1 °F 63.0 °F 75% 29.88 in 10.0 mi Variable 3.5 mph - N/A   Overcast
8:33 PM 68.0 °F 63.0 °F 84% 29.94 in 10.0 mi East 3.5 mph - N/A   Scattered Clouds
8:54 PM 68.0 °F 62.1 °F 81% 29.87 in 10.0 mi East 4.6 mph - N/A   Mostly Cloudy
9:01 PM 68.0 °F 62.1 °F 81% 29.94 in 10.0 mi East 4.6 mph - N/A   Scattered Clouds
9:10 PM 68.0 °F 62.1 °F 81% 29.94 in 10.0 mi ESE 4.6 mph - N/A   Mostly Cloudy
9:54 PM 68.0 °F 63.0 °F 84% 29.87 in 10.0 mi Calm Calm - N/A   Overcast
10:54 PM 66.9 °F 63.0 °F 87% 29.94 in 10.0 mi East 5.8 mph - N/A   Overcast
11:54 PM 66.9 °F 63.0 °F 87% 29.88 in 10.0 mi Calm Calm - N/A   Overcast